Regional Weather Roundup
Issued by NWS Huntsville, AL

Home | Current Version | Previous Version | Text Only | Print | Product List | Glossary On
Versions: 1 2 3 4 5 6 7 8 9 10 11 12 13 14 15 16 17 18 19 20 21 22 23 24 25 26 27 28 29 30 31 32 33 34 35 36 37 38 39 40 41 42 43 44 45 46 47 48 49 50
000
ASUS44 KHUN 202324
RWRHUN

WEATHER ROUNDUP FOR THE TENNESSEE VALLEY
NATIONAL WEATHER SERVICE HUNTSVILLE AL
600 PM CDT SUN APR 20 2014

ALZ001>004-210000-
NORTHWEST ALABAMA

CITY           SKY/WX    TMP DP  RH WIND       PRES   REMARKS
COURTLAND HCN    N/A     75 N/A N/A SE3         N/A
RUSSELLVILLE     N/A     75 N/A N/A MISG        N/A
SHOALS AIRPORT SUNNY     77  46  33 SE5       30.13S
$$

ALZ005>007-016-210000-
NORTH CENTRAL ALABAMA

CITY           SKY/WX    TMP DP  RH WIND       PRES   REMARKS
CULLMAN AG STN   N/A     75 N/A N/A NE5         N/A
DECATUR AP     MOSUNNY   76  46  34 SW6       30.12F
HUNTSVILLE AP  PTSUNNY   79  44  28 CALM      30.11F
HUN NWS/UAH      N/A     78  39  24 NW3         N/A
MERIDIANVILLE  MOSUNNY   73  37  27 CALM      30.12S
VINEMONT AP    FAIR      76  45  33 CALM      30.14F
$$

ALZ008>010-210000-
NORTHEAST ALABAMA

CITY           SKY/WX    TMP DP  RH WIND       PRES   REMARKS
ALBERTVILLE    SUNNY     73  52  46 W3        30.12S
CROSSVILLE       N/A     73 N/A N/A CALM        N/A
FORT PAYNE     MOSUNNY   73  34  23 NE3       30.11S
SCOTTSBORO AP  MOSUNNY   77  41  27 CALM      30.11F
SCOTTSBORO HCN   N/A     77 N/A N/A MISG        N/A
VALLEY HEAD      N/A     75 N/A N/A MISG        N/A
$$

TNZ076-096-097-210000-
SOUTHEASTERN MIDDLE TENNESSEE

CITY           SKY/WX    TMP DP  RH WIND       PRES   REMARKS
FAYETTEVILLE   FAIR      74  42  31 N3        30.13F
TULLAHOMA      SUNNY     73  43  33 NW6       30.13F
WINCHESTER     SUNNY     75  45  33 W3        30.12S
$$

...SURROUNDING SITES...

CITY           SKY/WX    TMP DP  RH WIND       PRES   REMARKS
ATLANTA        MOSUNNY   73  42  32 E9        30.14S
ANNISTON       SUNNY     77  44  30 E6        30.11F
BIRMINGHAM     PTSUNNY   77  41  27 SE5       30.13F
CHATTANOOGA    PTSUNNY   78  38  23 NE7       30.11F
CORINTH        FAIR      77  46  33 CALM      30.10F
DALTON         MOSUNNY   73  46  38 CALM      30.12S
GADSDEN        NOT AVBL
GOLDEN TRNGL   SUNNY     75  48  38 S6        30.14F
HALEYVILLE     FAIR      77  42  28 NE6       30.14F
JACKSON TN     SUNNY     78  44  29 CALM      30.10F
LEWISBURG      FAIR      79  45  29 CALM      30.11F
MEMPHIS        MOSUNNY   78  48  34 S5        30.10S
MURFREESBORO   FAIR      78  39  24 CALM      30.11F
NASHVILLE      PTSUNNY   77  40  26 E7        30.11F
OXFORD MS      LGT RAIN  77  45  31 CALM      30.12S
ROME           MOSUNNY   77  44  30 CALM      30.10S
SAVANNAH       SUNNY     78  44  29 CALM      30.11F
TUPELO         MOSUNNY   77  46  33 W5        30.11S
TUSCALOOSA     MOSUNNY   77  46  33 CALM      30.11F
$$

...GULF COAST WEATHER...

CITY           SKY/WX    TMP DP  RH WIND       PRES   REMARKS
GULFPORT       SUNNY     70  58  65 SE10      30.11S
PASCAGOULA     SUNNY     71  58  63 SW7       30.11S
MOBILE         MOSUNNY   71  55  56 NE10      30.12S
GULF SHORES    PTCLDY    66  55  66 NE6       30.12S
PENSACOLA      CLOUDY    65  54  67 NE8       30.13S
DESTIN         CLOUDY    63  52  67 NE5       30.14S
PANAMA CITY    CLOUDY    61  54  77 NE6       30.13S
APPALACHICOLA  CLOUDY    63  53  70 N12       30.11F
$$




USA.gov is the U.S. government's official web portal to all federal, state and local government web resources and services.